Year,Month,Day,Hour,Minute,Value (Times are PST for temperature in C)
2017,09,27,00,00,12.00
2017,09,27,00,01,12.00
2017,09,27,00,02,12.00
2017,09,27,00,03,12.00
2017,09,27,00,04,12.00
2017,09,27,00,05,12.00
2017,09,27,00,06,12.00
2017,09,27,00,07,11.90
2017,09,27,00,08,11.90
2017,09,27,00,09,11.90
2017,09,27,00,10,11.90
2017,09,27,00,11,11.90
2017,09,27,00,12,11.80
2017,09,27,00,13,11.80
2017,09,27,00,14,11.80
2017,09,27,00,15,11.80
2017,09,27,00,16,11.80
2017,09,27,00,17,11.80
2017,09,27,00,18,11.70
2017,09,27,00,19,11.70
2017,09,27,00,20,11.70
2017,09,27,00,21,11.70
2017,09,27,00,22,11.70
2017,09,27,00,23,11.70
2017,09,27,00,24,11.70
2017,09,27,00,25,11.70
2017,09,27,00,26,11.70
2017,09,27,00,27,11.70
2017,09,27,00,28,11.70
2017,09,27,00,29,11.70
2017,09,27,00,30,11.70
2017,09,27,00,31,11.70
2017,09,27,00,32,11.70
2017,09,27,00,33,11.70
2017,09,27,00,34,11.70
2017,09,27,00,35,11.60
2017,09,27,00,36,11.60
2017,09,27,00,37,11.60
2017,09,27,00,38,11.60
2017,09,27,00,39,11.60
2017,09,27,00,40,11.60
2017,09,27,00,41,11.60
2017,09,27,00,42,11.60
2017,09,27,00,43,11.60
2017,09,27,00,44,11.60
2017,09,27,00,45,11.60
2017,09,27,00,46,11.60
2017,09,27,00,47,11.60
2017,09,27,00,48,11.60
2017,09,27,00,49,11.50
2017,09,27,00,50,11.50
2017,09,27,00,51,11.50
2017,09,27,00,52,11.50
2017,09,27,00,53,11.40
2017,09,27,00,54,11.40
2017,09,27,00,55,11.40
2017,09,27,00,56,11.40
2017,09,27,00,57,11.40
2017,09,27,00,58,11.40
2017,09,27,00,59,11.40
2017,09,27,01,00,11.40
2017,09,27,01,01,11.40
2017,09,27,01,02,11.40
2017,09,27,01,03,11.40
2017,09,27,01,04,11.30
2017,09,27,01,05,11.30
2017,09,27,01,06,11.30
2017,09,27,01,07,11.30
2017,09,27,01,08,11.30
2017,09,27,01,09,11.30
2017,09,27,01,10,11.30
2017,09,27,01,11,11.20
2017,09,27,01,12,11.20
2017,09,27,01,13,11.20
2017,09,27,01,14,11.20
2017,09,27,01,15,11.20
2017,09,27,01,16,11.20
2017,09,27,01,17,11.20
2017,09,27,01,18,11.20
2017,09,27,01,19,11.20
2017,09,27,01,20,11.20
2017,09,27,01,21,11.20
2017,09,27,01,22,11.20
2017,09,27,01,23,11.20
2017,09,27,01,24,11.20
2017,09,27,01,25,11.10
2017,09,27,01,26,11.10
2017,09,27,01,27,11.10
2017,09,27,01,28,11.10
2017,09,27,01,29,11.10
2017,09,27,01,30,11.10
2017,09,27,01,31,11.10
2017,09,27,01,32,11.10
2017,09,27,01,33,11.10
2017,09,27,01,34,11.10
2017,09,27,01,35,11.10
2017,09,27,01,36,11.10
2017,09,27,01,37,11.10
2017,09,27,01,38,11.10
2017,09,27,01,39,11.10
2017,09,27,01,40,11.10
2017,09,27,01,41,11.10
2017,09,27,01,42,11.10
2017,09,27,01,43,11.00
2017,09,27,01,44,11.00
2017,09,27,01,45,11.00
2017,09,27,01,46,11.00
2017,09,27,01,47,11.00
2017,09,27,01,48,11.00
2017,09,27,01,49,11.00
2017,09,27,01,50,11.00
2017,09,27,01,51,11.00
2017,09,27,01,52,11.10
2017,09,27,01,53,11.10
2017,09,27,01,54,11.00
2017,09,27,01,55,11.00
2017,09,27,01,56,11.00
2017,09,27,01,57,11.00
2017,09,27,01,58,10.90
2017,09,27,01,59,10.90
2017,09,27,02,00,10.90
2017,09,27,02,01,10.90
2017,09,27,02,02,10.90
2017,09,27,02,03,10.90
2017,09,27,02,04,10.90
2017,09,27,02,05,10.90
2017,09,27,02,06,10.90
2017,09,27,02,07,10.80
2017,09,27,02,08,10.80
2017,09,27,02,09,10.80
2017,09,27,02,10,10.80
2017,09,27,02,11,10.80
2017,09,27,02,12,10.80
2017,09,27,02,13,10.80
2017,09,27,02,14,10.80
2017,09,27,02,15,10.80
2017,09,27,02,16,10.80
2017,09,27,02,17,10.80
2017,09,27,02,18,10.80
2017,09,27,02,19,10.80
2017,09,27,02,20,10.80
2017,09,27,02,21,10.80
2017,09,27,02,22,10.80
2017,09,27,02,23,10.70
2017,09,27,02,24,10.70
2017,09,27,02,25,10.70
2017,09,27,02,26,10.70
2017,09,27,02,27,10.70
2017,09,27,02,28,10.70
2017,09,27,02,29,10.70
2017,09,27,02,30,10.70
2017,09,27,02,31,10.60
2017,09,27,02,32,10.60
2017,09,27,02,33,10.60
2017,09,27,02,34,10.60
2017,09,27,02,35,10.60
2017,09,27,02,36,10.60
2017,09,27,02,37,10.60
2017,09,27,02,38,10.50
2017,09,27,02,39,10.50
2017,09,27,02,40,10.50
2017,09,27,02,41,10.50
2017,09,27,02,42,10.50
2017,09,27,02,43,10.40
2017,09,27,02,44,10.40
2017,09,27,02,45,10.40
2017,09,27,02,46,10.40
2017,09,27,02,47,10.40
2017,09,27,02,48,10.40
2017,09,27,02,49,10.40
2017,09,27,02,50,10.50
2017,09,27,02,51,10.60
2017,09,27,02,52,10.60
2017,09,27,02,53,10.60
2017,09,27,02,54,10.60
2017,09,27,02,55,10.60
2017,09,27,02,56,10.60
2017,09,27,02,57,10.60
2017,09,27,02,58,10.60
2017,09,27,02,59,10.60
2017,09,27,03,00,10.60
2017,09,27,03,01,10.60
2017,09,27,03,02,10.60
2017,09,27,03,03,10.60
2017,09,27,03,04,10.60
2017,09,27,03,05,10.60
2017,09,27,03,06,10.60
2017,09,27,03,07,10.60
2017,09,27,03,08,10.60
2017,09,27,03,09,10.60
2017,09,27,03,10,10.60
2017,09,27,03,11,10.60
2017,09,27,03,12,10.60
2017,09,27,03,13,10.60
2017,09,27,03,14,10.60
2017,09,27,03,15,10.60
2017,09,27,03,16,10.60
2017,09,27,03,17,10.60
2017,09,27,03,18,10.50
2017,09,27,03,19,10.60
2017,09,27,03,20,10.50
2017,09,27,03,21,10.50
2017,09,27,03,22,10.50
2017,09,27,03,23,10.50
2017,09,27,03,24,10.50
2017,09,27,03,25,10.50
2017,09,27,03,26,10.50
2017,09,27,03,27,10.50
2017,09,27,03,28,10.50
2017,09,27,03,29,10.50
2017,09,27,03,30,10.50
2017,09,27,03,31,10.40
2017,09,27,03,32,10.40
2017,09,27,03,33,10.40
2017,09,27,03,34,10.50
2017,09,27,03,35,10.50
2017,09,27,03,36,10.60
2017,09,27,03,37,10.60
2017,09,27,03,38,10.70
2017,09,27,03,39,10.70
2017,09,27,03,40,10.70
2017,09,27,03,41,10.80
2017,09,27,03,42,10.80
2017,09,27,03,43,10.80
2017,09,27,03,44,10.90
2017,09,27,03,45,10.90
2017,09,27,03,46,11.00
2017,09,27,03,47,11.00
2017,09,27,03,48,11.10
2017,09,27,03,49,11.10
2017,09,27,03,50,11.10
2017,09,27,03,51,11.20
2017,09,27,03,52,11.20
2017,09,27,03,53,11.20
2017,09,27,03,54,11.30
2017,09,27,03,55,11.40
2017,09,27,03,56,11.40
2017,09,27,03,57,11.40
2017,09,27,03,58,11.40
2017,09,27,03,59,11.40
2017,09,27,04,00,11.40
2017,09,27,04,01,11.40
2017,09,27,04,02,11.40
2017,09,27,04,03,11.40
2017,09,27,04,04,11.30
2017,09,27,04,05,11.30
2017,09,27,04,06,11.30
2017,09,27,04,07,11.30
2017,09,27,04,08,11.30
2017,09,27,04,09,11.30
2017,09,27,04,10,11.30
2017,09,27,04,11,11.30
2017,09,27,04,12,11.40
2017,09,27,04,13,11.50
2017,09,27,04,14,11.60
2017,09,27,04,15,11.60
2017,09,27,04,16,11.70
2017,09,27,04,17,11.70
2017,09,27,04,18,11.70
2017,09,27,04,19,11.70
2017,09,27,04,20,11.60
2017,09,27,04,21,11.60
2017,09,27,04,22,11.60
2017,09,27,04,23,11.60
2017,09,27,04,24,11.60
2017,09,27,04,25,11.60
2017,09,27,04,26,11.60
2017,09,27,04,27,11.70
2017,09,27,04,28,11.70
2017,09,27,04,29,11.70
2017,09,27,04,30,11.80
2017,09,27,04,31,11.80
2017,09,27,04,32,11.80
2017,09,27,04,33,11.90
2017,09,27,04,34,11.90
2017,09,27,04,35,12.00
2017,09,27,04,36,12.10
2017,09,27,04,37,12.10
2017,09,27,04,38,12.10
2017,09,27,04,39,12.20
2017,09,27,04,40,12.20
2017,09,27,04,41,12.20
2017,09,27,04,42,12.20
2017,09,27,04,43,12.20
2017,09,27,04,44,12.20
2017,09,27,04,45,12.30
2017,09,27,04,46,12.30
2017,09,27,04,47,12.30
2017,09,27,04,48,12.30
2017,09,27,04,49,12.30
2017,09,27,04,50,12.30
2017,09,27,04,51,12.30
2017,09,27,04,52,12.30
2017,09,27,04,53,12.30
2017,09,27,04,54,12.30
2017,09,27,04,55,12.30
2017,09,27,04,56,12.30
2017,09,27,04,57,12.40
2017,09,27,04,58,12.40
2017,09,27,04,59,12.40
2017,09,27,05,00,12.40
2017,09,27,05,01,12.40
2017,09,27,05,02,12.40
2017,09,27,05,03,12.40
2017,09,27,05,04,12.40
2017,09,27,05,05,12.40
2017,09,27,05,06,12.50
2017,09,27,05,07,12.40
2017,09,27,05,08,12.40
2017,09,27,05,09,12.40
2017,09,27,05,10,12.40
2017,09,27,05,11,12.40
2017,09,27,05,12,12.40
2017,09,27,05,13,12.40
2017,09,27,05,14,12.40
2017,09,27,05,15,12.40
2017,09,27,05,16,12.40
2017,09,27,05,17,12.40
2017,09,27,05,18,12.40
2017,09,27,05,19,12.40
2017,09,27,05,20,12.40
2017,09,27,05,21,12.30
2017,09,27,05,22,12.30
2017,09,27,05,23,12.30
2017,09,27,05,24,12.30
2017,09,27,05,25,12.30
2017,09,27,05,26,12.30
2017,09,27,05,27,12.30
2017,09,27,05,28,12.20
2017,09,27,05,29,12.20
2017,09,27,05,30,12.20
2017,09,27,05,31,12.20
2017,09,27,05,32,12.10
2017,09,27,05,33,12.10
2017,09,27,05,34,12.10
2017,09,27,05,35,12.10
2017,09,27,05,36,12.00
2017,09,27,05,37,12.00
2017,09,27,05,38,11.90
2017,09,27,05,39,11.90
2017,09,27,05,40,11.90
2017,09,27,05,41,11.90
2017,09,27,05,42,11.80
2017,09,27,05,43,11.80
2017,09,27,05,44,11.80
2017,09,27,05,45,11.70
2017,09,27,05,46,11.70
2017,09,27,05,47,11.70
2017,09,27,05,48,11.70
2017,09,27,05,49,11.70
2017,09,27,05,50,11.70
2017,09,27,05,51,11.70
2017,09,27,05,52,11.70
2017,09,27,05,53,11.60
2017,09,27,05,54,11.60
2017,09,27,05,55,11.60
2017,09,27,05,56,11.60
2017,09,27,05,57,11.60
2017,09,27,05,58,11.50
2017,09,27,05,59,11.50
2017,09,27,06,00,11.50
2017,09,27,06,01,11.50
2017,09,27,06,02,11.50
2017,09,27,06,03,11.50
2017,09,27,06,04,11.60
2017,09,27,06,05,11.60
2017,09,27,06,06,11.60
2017,09,27,06,07,11.60
2017,09,27,06,08,11.60
2017,09,27,06,09,11.60
2017,09,27,06,10,11.60
2017,09,27,06,11,11.60
2017,09,27,06,12,11.70
2017,09,27,06,13,11.70
2017,09,27,06,14,11.70
2017,09,27,06,15,11.80
2017,09,27,06,16,11.80
2017,09,27,06,17,11.80
2017,09,27,06,18,11.80
2017,09,27,06,19,11.80
2017,09,27,06,20,11.70
2017,09,27,06,21,11.70
2017,09,27,06,22,11.70
2017,09,27,06,23,11.70
2017,09,27,06,24,11.70
2017,09,27,06,25,11.70
2017,09,27,06,26,11.70
2017,09,27,06,27,11.70
2017,09,27,06,28,11.70
2017,09,27,06,29,11.70
2017,09,27,06,30,11.70
2017,09,27,06,31,11.70
2017,09,27,06,32,11.70
2017,09,27,06,33,11.70
2017,09,27,06,34,11.70
2017,09,27,06,35,11.70
2017,09,27,06,36,11.70
2017,09,27,06,37,11.70
2017,09,27,06,38,11.70
2017,09,27,06,39,11.70
2017,09,27,06,40,11.70
2017,09,27,06,41,11.70
2017,09,27,06,42,11.60
2017,09,27,06,43,11.60
2017,09,27,06,44,11.70
2017,09,27,06,45,11.70
2017,09,27,06,46,11.70
2017,09,27,06,47,11.70
2017,09,27,06,48,11.70
2017,09,27,06,49,11.70
2017,09,27,06,50,11.80
2017,09,27,06,51,11.80
2017,09,27,06,52,11.70
2017,09,27,06,53,11.70
2017,09,27,06,54,11.70
2017,09,27,06,55,11.60
2017,09,27,06,56,11.60
2017,09,27,06,57,11.60
2017,09,27,06,58,11.60
2017,09,27,06,59,11.50
2017,09,27,07,00,11.50
2017,09,27,07,01,11.50
2017,09,27,07,02,11.50
2017,09,27,07,03,11.40
2017,09,27,07,04,11.40
2017,09,27,07,05,11.30
2017,09,27,07,06,11.30
2017,09,27,07,07,11.30
2017,09,27,07,08,11.30
2017,09,27,07,09,11.20
2017,09,27,07,10,11.10
2017,09,27,07,11,11.10
2017,09,27,07,12,11.10
2017,09,27,07,13,11.10
2017,09,27,07,14,11.10
2017,09,27,07,15,11.10
2017,09,27,07,16,11.20
2017,09,27,07,17,11.30
2017,09,27,07,18,11.30
2017,09,27,07,19,11.30
2017,09,27,07,20,11.30
2017,09,27,07,21,11.30
2017,09,27,07,22,11.30
2017,09,27,07,23,11.30
2017,09,27,07,24,11.30
2017,09,27,07,25,11.40
2017,09,27,07,26,11.40
2017,09,27,07,27,11.40
2017,09,27,07,28,11.40
2017,09,27,07,29,11.40
2017,09,27,07,30,11.30
2017,09,27,07,31,11.30
2017,09,27,07,32,11.40
2017,09,27,07,33,11.40
2017,09,27,07,34,11.40
2017,09,27,07,35,11.50
2017,09,27,07,36,11.50
2017,09,27,07,37,11.60
2017,09,27,07,38,11.70
2017,09,27,07,39,11.80
2017,09,27,07,40,11.80
2017,09,27,07,41,11.80
2017,09,27,07,42,11.80
2017,09,27,07,43,11.80
2017,09,27,07,44,11.80
2017,09,27,07,45,11.80
2017,09,27,07,46,11.90
2017,09,27,07,47,12.00
2017,09,27,07,48,12.10
2017,09,27,07,49,12.20
2017,09,27,07,50,12.30
2017,09,27,07,51,12.30
2017,09,27,07,52,12.40
2017,09,27,07,53,12.50
2017,09,27,07,54,12.60
2017,09,27,07,55,12.60
2017,09,27,07,56,12.70
2017,09,27,07,57,12.80
2017,09,27,07,58,12.90
2017,09,27,07,59,12.90
2017,09,27,08,00,12.90
2017,09,27,08,01,13.00
2017,09,27,08,02,13.00
2017,09,27,08,03,13.00
2017,09,27,08,04,13.10
2017,09,27,08,05,13.20
2017,09,27,08,06,13.30
2017,09,27,08,07,13.30
2017,09,27,08,08,13.40
2017,09,27,08,09,13.50
2017,09,27,08,10,13.50
2017,09,27,08,11,13.60
2017,09,27,08,12,13.60
2017,09,27,08,13,13.70
2017,09,27,08,14,13.80
2017,09,27,08,15,13.90
2017,09,27,08,16,13.90
2017,09,27,08,17,14.00
2017,09,27,08,18,14.10
2017,09,27,08,19,14.20
2017,09,27,08,20,14.30
2017,09,27,08,21,14.30
2017,09,27,08,22,14.40
2017,09,27,08,23,14.50
2017,09,27,08,24,14.60
2017,09,27,08,25,14.70
2017,09,27,08,26,14.70
2017,09,27,08,27,14.80
2017,09,27,08,28,14.90
2017,09,27,08,29,14.90
2017,09,27,08,30,15.00
2017,09,27,08,31,15.10
2017,09,27,08,32,15.20
2017,09,27,08,33,15.20
2017,09,27,08,34,15.30
2017,09,27,08,35,15.30
2017,09,27,08,36,15.40
2017,09,27,08,37,15.40
2017,09,27,08,38,15.50
2017,09,27,08,39,15.50
2017,09,27,08,40,15.60
2017,09,27,08,41,15.60
2017,09,27,08,42,15.70
2017,09,27,08,43,15.70
2017,09,27,08,44,15.70
2017,09,27,08,45,15.80
2017,09,27,08,46,15.80
2017,09,27,08,47,15.80
2017,09,27,08,48,15.80
2017,09,27,08,49,15.90
2017,09,27,08,50,15.90
2017,09,27,08,51,15.90
2017,09,27,08,52,15.90
2017,09,27,08,53,16.00
2017,09,27,08,54,16.00
2017,09,27,08,55,16.00
2017,09,27,08,56,16.00
2017,09,27,08,57,16.10
2017,09,27,08,58,16.10
2017,09,27,08,59,16.10
2017,09,27,09,00,16.10
2017,09,27,09,01,16.20
2017,09,27,09,02,16.20
2017,09,27,09,03,16.20
2017,09,27,09,04,16.20
2017,09,27,09,05,16.20
2017,09,27,09,06,16.30
2017,09,27,09,07,16.30
2017,09,27,09,08,16.30
2017,09,27,09,09,16.30
2017,09,27,09,10,16.40
2017,09,27,09,11,16.40
2017,09,27,09,12,16.40
2017,09,27,09,13,16.40
2017,09,27,09,14,16.40
2017,09,27,09,15,16.50
2017,09,27,09,16,16.50
2017,09,27,09,17,16.60
2017,09,27,09,18,16.60
2017,09,27,09,19,16.60
2017,09,27,09,20,16.60
2017,09,27,09,21,16.70
2017,09,27,09,22,16.70
2017,09,27,09,23,16.70
2017,09,27,09,24,16.70
2017,09,27,09,25,16.80
2017,09,27,09,26,16.80
2017,09,27,09,27,16.80
2017,09,27,09,28,16.80
2017,09,27,09,29,16.80
2017,09,27,09,30,16.80
2017,09,27,09,31,16.90
2017,09,27,09,32,16.90
2017,09,27,09,33,16.90
2017,09,27,09,34,17.00
2017,09,27,09,35,17.00
2017,09,27,09,36,17.00
2017,09,27,09,37,17.10
2017,09,27,09,38,17.00
2017,09,27,09,39,17.10
2017,09,27,09,40,17.00
2017,09,27,09,41,17.10
2017,09,27,09,42,17.10
2017,09,27,09,43,17.10
2017,09,27,09,44,17.10
2017,09,27,09,45,17.10
2017,09,27,09,46,17.10
2017,09,27,09,47,17.10
2017,09,27,09,48,17.10
2017,09,27,09,49,17.20
2017,09,27,09,50,17.20
2017,09,27,09,51,17.20
2017,09,27,09,52,17.30
2017,09,27,09,53,17.30
2017,09,27,09,54,17.30
2017,09,27,09,55,17.40
2017,09,27,09,56,17.40
2017,09,27,09,57,17.50
2017,09,27,09,58,17.50
2017,09,27,09,59,17.50
2017,09,27,10,00,17.50
2017,09,27,10,01,17.50
2017,09,27,10,02,17.60
2017,09,27,10,03,17.60
2017,09,27,10,04,17.70
2017,09,27,10,05,17.70
2017,09,27,10,06,17.80
2017,09,27,10,07,17.70
2017,09,27,10,08,17.70
2017,09,27,10,09,17.70
2017,09,27,10,10,17.70
2017,09,27,10,11,17.80
2017,09,27,10,12,17.80
2017,09,27,10,13,17.80
2017,09,27,10,14,17.80
2017,09,27,10,15,17.90
2017,09,27,10,16,17.90
2017,09,27,10,17,18.00
2017,09,27,10,18,18.00
2017,09,27,10,19,18.10
2017,09,27,10,20,18.10
2017,09,27,10,21,18.10
2017,09,27,10,22,18.10
2017,09,27,10,23,18.10
2017,09,27,10,24,18.10
2017,09,27,10,25,18.20
2017,09,27,10,26,18.20
2017,09,27,10,27,18.20
2017,09,27,10,28,18.30
2017,09,27,10,29,18.30
2017,09,27,10,30,18.30
2017,09,27,10,31,18.30
2017,09,27,10,32,18.30
2017,09,27,10,33,18.40
2017,09,27,10,34,18.40
2017,09,27,10,35,18.40
2017,09,27,10,36,18.40
2017,09,27,10,37,18.40
2017,09,27,10,38,18.50
2017,09,27,10,39,18.50
2017,09,27,10,40,18.50
2017,09,27,10,41,18.60
2017,09,27,10,42,18.60
2017,09,27,10,43,18.60
2017,09,27,10,44,18.60
2017,09,27,10,45,18.60
2017,09,27,10,46,18.60
2017,09,27,10,47,18.60
2017,09,27,10,48,18.60
2017,09,27,10,49,18.60
2017,09,27,10,50,18.60
2017,09,27,10,51,18.60
2017,09,27,10,52,18.60
2017,09,27,10,53,18.60
2017,09,27,10,54,18.60
2017,09,27,10,55,18.50
2017,09,27,10,56,18.50
2017,09,27,10,57,18.60
2017,09,27,10,58,18.60
2017,09,27,10,59,18.70
2017,09,27,11,00,18.80
2017,09,27,11,01,18.80
2017,09,27,11,02,18.80
2017,09,27,11,03,18.90
2017,09,27,11,04,18.90
2017,09,27,11,05,18.90
2017,09,27,11,06,19.00
2017,09,27,11,07,19.00
2017,09,27,11,08,18.90
2017,09,27,11,09,18.90
2017,09,27,11,10,18.90
2017,09,27,11,11,18.90
2017,09,27,11,12,18.90
2017,09,27,11,13,18.80
2017,09,27,11,14,18.80
2017,09,27,11,15,18.80
2017,09,27,11,16,18.80
2017,09,27,11,17,18.90
2017,09,27,11,18,19.00
2017,09,27,11,19,19.00
2017,09,27,11,20,19.00
2017,09,27,11,21,19.10
2017,09,27,11,22,19.10
2017,09,27,11,23,19.10
2017,09,27,11,24,19.20
2017,09,27,11,25,19.20
2017,09,27,11,26,19.20
2017,09,27,11,27,19.30
2017,09,27,11,28,19.30
2017,09,27,11,29,19.30
2017,09,27,11,30,19.40
2017,09,27,11,31,19.40
2017,09,27,11,32,19.40
2017,09,27,11,33,19.40
2017,09,27,11,34,19.40
2017,09,27,11,35,19.40
2017,09,27,11,36,19.40
2017,09,27,11,37,19.30
2017,09,27,11,38,19.20
2017,09,27,11,39,19.20
2017,09,27,11,40,19.20
2017,09,27,11,41,19.10
2017,09,27,11,42,19.10
2017,09,27,11,43,19.10
2017,09,27,11,44,19.10
2017,09,27,11,45,19.20
2017,09,27,11,46,19.20
2017,09,27,11,47,19.20
2017,09,27,11,48,19.30
2017,09,27,11,49,19.30
2017,09,27,11,50,19.30
2017,09,27,11,51,19.30
2017,09,27,11,52,19.30
2017,09,27,11,53,19.40
2017,09,27,11,54,19.40
2017,09,27,11,55,19.50
2017,09,27,11,56,19.50
2017,09,27,11,57,19.60
2017,09,27,11,58,19.70
2017,09,27,11,59,19.80
2017,09,27,12,00,19.90
2017,09,27,12,01,20.00
2017,09,27,12,02,20.00
2017,09,27,12,03,20.00
2017,09,27,12,04,19.90
2017,09,27,12,05,19.90
2017,09,27,12,06,19.90
2017,09,27,12,07,19.90
2017,09,27,12,08,19.90
2017,09,27,12,09,19.90
2017,09,27,12,10,20.00
2017,09,27,12,11,20.10
2017,09,27,12,12,20.10
2017,09,27,12,13,20.10
2017,09,27,12,14,20.10
2017,09,27,12,15,20.10
2017,09,27,12,16,20.00
2017,09,27,12,17,19.90
2017,09,27,12,18,19.90
2017,09,27,12,19,19.90
2017,09,27,12,20,19.90
2017,09,27,12,21,19.90
2017,09,27,12,22,20.00
2017,09,27,12,23,20.10
2017,09,27,12,24,20.20
2017,09,27,12,25,20.30
2017,09,27,12,26,20.40
2017,09,27,12,27,20.40
2017,09,27,12,28,20.40
2017,09,27,12,29,20.40
2017,09,27,12,30,20.30
2017,09,27,12,31,20.30
2017,09,27,12,32,20.30
2017,09,27,12,33,20.20
2017,09,27,12,34,20.20
2017,09,27,12,35,20.20
2017,09,27,12,36,20.20
2017,09,27,12,37,20.20
2017,09,27,12,38,20.30
2017,09,27,12,39,20.30
2017,09,27,12,40,20.30
2017,09,27,12,41,20.40
2017,09,27,12,42,20.30
2017,09,27,12,43,20.30
2017,09,27,12,44,20.40
2017,09,27,12,45,20.40
2017,09,27,12,46,20.40
2017,09,27,12,47,20.40
2017,09,27,12,48,20.40
2017,09,27,12,49,20.40
2017,09,27,12,50,20.40
2017,09,27,12,51,20.40
2017,09,27,12,52,20.50
2017,09,27,12,53,20.40
2017,09,27,12,54,20.50
2017,09,27,12,55,20.50
2017,09,27,12,56,20.50
2017,09,27,12,57,20.50
2017,09,27,12,58,20.50
2017,09,27,12,59,20.40
2017,09,27,13,00,20.40
2017,09,27,13,01,20.50
2017,09,27,13,02,20.50
2017,09,27,13,03,20.50
2017,09,27,13,04,20.60
2017,09,27,13,05,20.70
2017,09,27,13,06,20.70
2017,09,27,13,07,20.70
2017,09,27,13,08,20.70
2017,09,27,13,09,20.70
2017,09,27,13,10,20.80
2017,09,27,13,11,20.80
2017,09,27,13,12,20.80
2017,09,27,13,13,20.90
2017,09,27,13,14,21.00
2017,09,27,13,15,21.00
2017,09,27,13,16,21.00
2017,09,27,13,17,21.00
2017,09,27,13,18,21.00
2017,09,27,13,19,20.90
2017,09,27,13,20,20.90
2017,09,27,13,21,20.90
2017,09,27,13,22,20.90
2017,09,27,13,23,20.90
2017,09,27,13,24,20.90
2017,09,27,13,25,21.00
2017,09,27,13,26,21.00
2017,09,27,13,27,21.00
2017,09,27,13,28,21.00
2017,09,27,13,29,21.10
2017,09,27,13,30,21.10
2017,09,27,13,31,21.10
2017,09,27,13,32,21.10
2017,09,27,13,33,21.00
2017,09,27,13,34,21.00
2017,09,27,13,35,20.90
2017,09,27,13,36,20.90
2017,09,27,13,37,20.90
2017,09,27,13,38,20.90
2017,09,27,13,39,20.90
2017,09,27,13,40,21.00
2017,09,27,13,41,21.00
2017,09,27,13,42,21.10
2017,09,27,13,43,21.10
2017,09,27,13,44,21.10
2017,09,27,13,45,21.20
2017,09,27,13,46,21.30
2017,09,27,13,47,21.40
2017,09,27,13,48,21.40
2017,09,27,13,49,21.40
2017,09,27,13,50,21.40
2017,09,27,13,51,21.40
2017,09,27,13,52,21.40
2017,09,27,13,53,21.40
2017,09,27,13,54,21.50
2017,09,27,13,55,21.50
2017,09,27,13,56,21.50
2017,09,27,13,57,21.50
2017,09,27,13,58,21.40
2017,09,27,13,59,21.40
2017,09,27,14,00,21.30
2017,09,27,14,01,21.30
2017,09,27,14,02,21.30
2017,09,27,14,03,21.30
2017,09,27,14,04,21.20
2017,09,27,14,05,21.20
2017,09,27,14,06,21.20
2017,09,27,14,07,21.20
2017,09,27,14,08,21.20
2017,09,27,14,09,21.30
2017,09,27,14,10,21.30
2017,09,27,14,11,21.40
2017,09,27,14,12,21.40
2017,09,27,14,13,21.30
2017,09,27,14,14,21.30
2017,09,27,14,15,21.30
2017,09,27,14,16,21.40
2017,09,27,14,17,21.40
2017,09,27,14,18,21.40
2017,09,27,14,19,21.40
2017,09,27,14,20,21.40
2017,09,27,14,21,21.40
2017,09,27,14,22,21.40
2017,09,27,14,23,21.50
2017,09,27,14,24,21.60
2017,09,27,14,25,21.70
2017,09,27,14,26,21.70
2017,09,27,14,27,21.80
2017,09,27,14,28,21.80
2017,09,27,14,29,21.80
2017,09,27,14,30,21.90
2017,09,27,14,31,21.90
2017,09,27,14,32,21.90
2017,09,27,14,33,22.00
2017,09,27,14,34,22.00
2017,09,27,14,35,21.90
2017,09,27,14,36,21.80
2017,09,27,14,37,21.80
2017,09,27,14,38,21.70
2017,09,27,14,39,21.70
2017,09,27,14,40,21.70
2017,09,27,14,41,21.70
2017,09,27,14,42,21.70
2017,09,27,14,43,21.60
2017,09,27,14,44,21.60
2017,09,27,14,45,21.60
2017,09,27,14,46,21.60
2017,09,27,14,47,21.70
2017,09,27,14,48,21.60
2017,09,27,14,49,21.60
2017,09,27,14,50,21.70
2017,09,27,14,51,21.70
2017,09,27,14,52,21.80
2017,09,27,14,53,21.80
2017,09,27,14,54,21.80
2017,09,27,14,55,21.80
2017,09,27,14,56,21.80
2017,09,27,14,57,21.70
2017,09,27,14,58,21.70
2017,09,27,14,59,21.70
2017,09,27,15,00,21.70
2017,09,27,15,01,21.70
2017,09,27,15,02,21.80
2017,09,27,15,03,21.80
2017,09,27,15,04,21.80
2017,09,27,15,05,21.80
2017,09,27,15,06,21.90
2017,09,27,15,07,21.90
2017,09,27,15,08,21.80
2017,09,27,15,09,21.80
2017,09,27,15,10,21.80
2017,09,27,15,11,21.80
2017,09,27,15,12,21.90
2017,09,27,15,13,22.00
2017,09,27,15,14,22.10
2017,09,27,15,15,22.20
2017,09,27,15,16,22.20
2017,09,27,15,17,22.30
2017,09,27,15,18,22.30
2017,09,27,15,19,22.30
2017,09,27,15,20,22.30
2017,09,27,15,21,22.30
2017,09,27,15,22,22.30
2017,09,27,15,23,22.30
2017,09,27,15,24,22.30
2017,09,27,15,25,22.40
2017,09,27,15,26,22.40
2017,09,27,15,27,22.40
2017,09,27,15,28,22.30
2017,09,27,15,29,22.30
2017,09,27,15,30,22.30
2017,09,27,15,31,22.30
2017,09,27,15,32,22.20
2017,09,27,15,33,22.20
2017,09,27,15,34,22.20
2017,09,27,15,35,22.10
2017,09,27,15,36,22.00
2017,09,27,15,37,22.00
2017,09,27,15,38,22.00
2017,09,27,15,39,22.00
2017,09,27,15,40,22.00
2017,09,27,15,41,22.00
2017,09,27,15,42,22.00
2017,09,27,15,43,21.90
2017,09,27,15,44,21.90
2017,09,27,15,45,21.90
2017,09,27,15,46,21.80
2017,09,27,15,47,21.80
2017,09,27,15,48,21.80
2017,09,27,15,49,21.80
2017,09,27,15,50,21.80
2017,09,27,15,51,21.80
2017,09,27,15,52,21.90
2017,09,27,15,53,22.00
2017,09,27,15,54,22.10
2017,09,27,15,55,22.10
2017,09,27,15,56,22.10
2017,09,27,15,57,22.20
2017,09,27,15,58,22.20
2017,09,27,15,59,22.20
2017,09,27,16,00,22.20
2017,09,27,16,01,22.30
2017,09,27,16,02,22.30
2017,09,27,16,03,22.30
2017,09,27,16,04,22.30
2017,09,27,16,05,22.40
2017,09,27,16,06,22.40
2017,09,27,16,07,22.40
2017,09,27,16,08,22.40
2017,09,27,16,09,22.30
2017,09,27,16,10,22.30
2017,09,27,16,11,22.30
2017,09,27,16,12,22.30
2017,09,27,16,13,22.30
2017,09,27,16,14,22.30
2017,09,27,16,15,22.30
2017,09,27,16,16,22.30
2017,09,27,16,17,22.20
2017,09,27,16,18,22.20
2017,09,27,16,19,22.20
2017,09,27,16,20,22.20
2017,09,27,16,21,22.30
2017,09,27,16,22,22.30
2017,09,27,16,23,22.30
2017,09,27,16,24,22.30
2017,09,27,16,25,22.30
2017,09,27,16,26,22.30
2017,09,27,16,27,22.30
2017,09,27,16,28,22.20
2017,09,27,16,29,22.20
2017,09,27,16,30,22.20
2017,09,27,16,31,22.20
2017,09,27,16,32,22.20
2017,09,27,16,33,22.20
2017,09,27,16,34,22.20
2017,09,27,16,35,22.20
2017,09,27,16,36,22.20
2017,09,27,16,37,22.20
2017,09,27,16,38,22.20
2017,09,27,16,39,22.20
2017,09,27,16,40,22.20
2017,09,27,16,41,22.20
2017,09,27,16,42,22.20
2017,09,27,16,43,22.30
2017,09,27,16,44,22.30
2017,09,27,16,45,22.20
2017,09,27,16,46,22.20
2017,09,27,16,47,22.10
2017,09,27,16,48,22.00
2017,09,27,16,49,21.90
2017,09,27,16,50,21.90
2017,09,27,16,51,21.90
2017,09,27,16,52,21.90
2017,09,27,16,53,21.90
2017,09,27,16,54,21.90
2017,09,27,16,55,21.90
2017,09,27,16,56,21.90
2017,09,27,16,57,21.90
2017,09,27,16,58,21.90
2017,09,27,16,59,21.90
2017,09,27,17,00,21.90
2017,09,27,17,01,22.00
2017,09,27,17,02,22.00
2017,09,27,17,03,22.10
2017,09,27,17,04,22.10
2017,09,27,17,05,22.10
2017,09,27,17,06,22.10
2017,09,27,17,07,22.00
2017,09,27,17,08,22.00
2017,09,27,17,09,21.90
2017,09,27,17,10,21.80
2017,09,27,17,11,21.80
2017,09,27,17,12,21.80
2017,09,27,17,13,21.80
2017,09,27,17,14,21.90
2017,09,27,17,15,21.80
2017,09,27,17,16,21.80
2017,09,27,17,17,21.80
2017,09,27,17,18,21.80
2017,09,27,17,19,21.80